Flag for Germany Weather past 2 weeks in Laatzen, Lower Saxony, Germany

Now
55 °F

Fog.


Feels Like: 55 °F
Forecast: 56 / 72 °F
Wind: 3 mph from Northeast

Location: Hannover

Current Time: Sep 16, 2014 at 7:52:40 AM

Latest Report: Sep 16, 2014 at 7:00 AM


Visibility: 2 mi

Pressure: 30.07 "Hg

Humidity: 100%

Dew point: 55 °F

Location of LaatzenLocation

Historic Weather in Laatzen — Graph

°F

Laatzen temperature yesterday

Maximum temperature yesterday: 68 °F (at 6:00 PM)
Minimum temperature yesterday: 59 °F (at 11:00 PM)
Average temperature yesterday: 63 °F

Past Weeks' High & Low Weather Summary

 TemperatureHumidityPressure
High78 °F (Sep 6, 2:00 PM)100% (Sep 1, 7:00 AM)30.31 "Hg (Sep 1, 7:00 AM)
Low47 °F (Sep 3, 6:00 AM)52% (Sep 12, 4:00 PM)29.87 "Hg (Sep 6, 4:00 PM)
Average61 °F88%30.10 "Hg
* Reported Sep 1 7:00 AM — Sep 16 7:00 AM, Laatzen, Weather by CustomWeather, © 2014

Note: Actual official high and low records may vary slightly from our data, if they occured in-between our weather recording intervals... More about our weather records

Advertising

Laatzen weather history for previous 24 hours

 ConditionsComfort  
Time TempWeatherWind HumidityBarometerVisibility
7:00 AM
Sep 16
55 °FFog.3 mph100%30.07 "Hg2 mi
6:00 AM56 °FFog.3 mph100%30.06 "Hg2 mi
4:00 AM58 °FFog.2 mph100%30.06 "Hg1 mi
3:00 AM59 °FFog.1 mph100%30.07 "Hg1 mi
2:00 AM59 °FFog.1 mph100%30.06 "Hg1 mi
1:00 AM60 °FPassing clouds.2 mph99%30.07 "Hg2 mi
12:00 AM60 °FFog.1 mph100%30.08 "Hg2 mi
11:00 PM
Sep 15
59 °FFog.2 mph99%30.08 "Hg2 mi
10:00 PM61 °FFog.2 mph98%30.08 "Hg2 mi
9:00 PM61 °FFog.2 mph96%30.07 "Hg3 mi
8:00 PM64 °FFog.1 mph91%30.06 "Hg4 mi
7:00 PM67 °FPartly sunny.3 mph85%30.06 "Hg5 mi
6:00 PM68 °FOvercast.5 mph84%30.06 "Hg6 mi
5:00 PM67 °FFog.6 mph89%30.07 "Hg4 mi
4:00 PM67 °FFog.6 mph89%30.08 "Hg4 mi
3:00 PM67 °FOvercast.6 mph84%30.09 "Hg6 mi
2:00 PM67 °FOvercast.5 mph89%30.10 "Hg6 mi
1:00 PM65 °FFog.3 mph91%30.10 "Hg4 mi
12:00 PM63 °FLow clouds.2 mph99%30.11 "Hg2 mi
11:00 AM63 °FFog.3 mph100%30.10 "Hg4 mi
10:00 AM62 °FFog.3 mph100%30.10 "Hg2 mi
9:00 AM61 °FFog.3 mph100%30.09 "Hg1 mi
8:00 AM61 °FFog.2 mph100%30.09 "Hg0 mi
7:00 AM60 °FFog.2 mph100%30.08 "Hg0 mi
Weather by CustomWeather, © 2014

See weather overviewHow to use our weather pages